This demonstration page uses our WeatherBlox Daily Observations layout. Learn more.

Left ArrowRight Arrow

Hourly Observations for March 23, 2016

Temp ( °F °C ) Dew Point ( °F °C ) Humidity (%) Winds ( mph kmh ) Pressure ( in mb ) Visibility ( mi km ) Precip ( " mm )
12:53 am 00:53 Clear 60 15.6 30 -1.1 32 32 SSW 10 17 29.88 1012 10 16 N/A
1:53 am 01:53 Clear 59 15 30 -1.1 33 33 SSW 8 13 29.89 1012 10 16 N/A
2:53 am 02:53 Clear 58 14.4 30 -1.1 35 35 SW 7 11 29.90 1012 10 16 N/A
3:53 am 03:53 Clear 57 13.9 30 -1.1 36 36 SSW 9 15 29.90 1013 10 16 N/A
4:53 am 04:53 Clear 57 13.9 30 -1.1 36 36 SSW 7 11 29.90 1013 10 16 N/A
5:53 am 05:53 Clear 57 13.9 31 -0.6 37 37 SSW 9 15 29.91 1013 10 16 N/A
6:53 am 06:53 Clear 55 12.8 32 undefined 42 42 SSW 8 13 29.92 1013 10 16 N/A
7:53 am 07:53 Sunny 55 12.8 33 0.6 44 44 VRB 7 11 29.94 1014 10 16 N/A
8:53 am 08:53 Sunny 57 13.9 35 1.7 44 44 SSW 7 11 29.94 1014 10 16 N/A
9:53 am 09:53 Mostly Sunny 59 15 37 2.8 44 44 SW 12 19 29.95 1014 10 16 N/A
10:53 am 10:53 Mostly Cloudy 61 16.1 40 4.4 46 46 SSW 13 20 29.96 1015 10 16 N/A
11:53 am 11:53 Cloudy 61 16.1 42 5.6 50 50 SSW 9 15 29.98 1015 10 16 N/A
12:53 pm 12:53 Cloudy 60 15.6 43 6.1 53 53 SW 18 30 29.98 1015 10 16 N/A
1:53 pm 13:53 Cloudy 61 16.1 44 6.7 54 54 SW 12 19 29.98 1015 10 16 N/A
2:53 pm 14:53 Cloudy 62 16.7 45 7.2 54 54 SSW 10 17 29.96 1015 10 16 N/A
3:53 pm 15:53 Cloudy 61 16.1 46 7.8 58 58 S 10 17 29.94 1014 10 16 N/A
4:53 pm 16:53 Cloudy 62 16.7 46 7.8 56 56 SSW 14 22 29.92 1013 10 16 N/A
5:53 pm 17:53 Cloudy 62 16.7 47 8.3 58 58 SSW 13 20 29.91 1013 10 16 N/A
6:53 pm 18:53 Cloudy 62 16.7 47 8.3 58 58 SSW 10 17 29.92 1013 10 16 N/A
7:53 pm 19:53 Cloudy 62 16.7 47 8.3 58 58 VRB 7 11 29.92 1013 10 16 N/A
8:53 pm 20:53 Clear 59 15 46 7.8 62 62 SSW 3 6 29.92 1013 10 16 N/A
9:53 pm 21:53 Mostly Cloudy 54 12.2 46 7.8 75 75 E 3 6 29.92 1013 10 16 N/A
10:53 pm 22:53 Cloudy 54 12.2 47 8.3 77 77 ESE 3 6 29.92 1013 10 16 N/A
11:53 pm 23:53 Cloudy 58 14.4 47 8.3 67 67 SE 3 6 29.90 1013 10 16 N/A

Powered by AerisWeather